Theta_e
346 345 346 347 346 347 346 346 347 346 346 347 348 347 347 347 347 347 348 344 345 347 347 347 347 347 345 346 346 345 344 344 344 344 344 343 342 342 342 342 341 339 338 339 342 343 342 342 342 341 341 341 341 341 340 340 339 338 338 338 338 337
344 345 346 345 345 346 346 347 347 347 347 347 347 347 348 348 347 348 344 345 346 345 346 346 346 345 345 345 345 344 345 344 344 344 344 344 343 342 342 341 339 337 337 336 338 344 344 342 341 341 341 340 341 340 340 340 339 338 337 338 338 339
344 345 345 344 344 346 346 346 346 347 347 346 348 347 347 345 346 346 345 344 345 347 346 347 347 345 346 345 346 345 344 345 344 344 344 344 344 343 341 340 338 337 334 335 340 340 343 343 344 342 341 341 340 339 340 340 339 339 337 337 337 338
343 345 343 343 344 345 344 346 345 346 346 347 346 345 344 345 344 345 344 344 346 346 348 348 347 346 345 346 345 345 345 345 344 344 343 342 342 342 340 339 337 335 336 340 340 337 338 341 343 345 343 341 340 339 339 340 338 339 339 335 335 336
344 344 342 344 343 343 344 345 344 345 346 346 345 345 345 344 344 344 344 344 345 345 346 347 347 347 346 346 346 345 345 345 345 344 342 342 342 341 342 341 341 338 339 338 338 338 338 339 341 341 341 340 340 340 340 340 339 338 339 338 338 336
344 343 344 343 344 344 344 343 343 345 343 343 344 344 345 344 346 346 346 345 346 346 346 346 347 346 346 345 345 344 344 345 344 343 342 343 341 342 342 342 342 340 340 340 339 339 339 340 340 339 340 340 340 340 339 339 339 339 339 339 339 336
343 342 343 344 344 344 343 343 344 345 343 343 345 343 344 345 345 345 346 346 346 345 344 344 345 345 345 345 344 344 343 344 344 343 343 341 342 343 343 343 343 342 343 340 340 340 340 339 341 339 340 340 340 340 340 339 338 338 339 338 339 336
342 342 343 343 344 343 343 343 344 345 344 344 345 344 345 344 344 345 345 346 345 344 342 341 343 344 343 344 344 344 344 343 343 343 343 343 341 341 342 343 344 340 339 340 340 342 341 340 341 342 341 341 341 340 340 339 339 339 339 339 338 337
342 342 343 344 342 342 343 344 345 345 344 345 344 344 343 343 343 344 343 344 344 344 343 342 342 342 342 343 343 343 344 344 344 343 344 343 342 341 340 340 341 340 339 339 339 341 341 340 341 342 342 341 340 341 341 340 339 337 338 338 338 337
342 341 342 342 341 341 342 343 343 344 344 346 344 343 343 343 343 343 343 343 343 343 342 342 342 342 342 343 343 343 343 343 344 344 344 342 342 341 340 339 340 340 337 338 338 340 341 341 341 341 341 340 340 341 341 339 339 339 338 338 339 338
343 343 343 341 341 341 342 343 343 344 344 344 344 344 344 342 342 342 342 341 341 341 342 342 342 342 343 343 344 344 344 343 344 345 343 342 344 342 342 341 342 340 339 338 338 340 339 340 341 342 340 340 340 341 340 340 339 338 337 337 338 338
344 344 343 342 342 342 342 343 343 344 344 344 344 343 342 342 343 342 341 341 341 342 342 342 341 341 342 343 343 343 344 343 344 343 342 343 343 343 343 343 343 343 344 343 341 340 341 340 340 340 339 338 339 340 338 339 339 338 338 338 337 338
343 343 343 341 341 341 341 342 343 343 343 342 342 342 342 342 342 342 342 342 342 342 342 342 343 343 343 343 342 343 342 342 343 343 342 341 341 342 342 342 344 344 343 343 343 341 341 340 339 340 340 339 340 339 339 339 338 336 335 336 336 336
342 341 341 341 342 341 341 341 342 343 344 342 342 342 342 342 341 342 343 343 343 343 343 343 343 344 343 344 343 342 340 341 342 341 342 341 341 341 341 341 340 341 341 341 340 341 340 339 338 339 340 341 341 341 340 339 338 336 335 335 337 338
342 341 341 341 340 340 341 341 341 342 342 342 341 341 342 342 343 343 343 343 343 343 344 344 344 343 343 343 341 340 340 341 340 341 342 342 340 341 341 339 339 338 341 341 339 340 339 340 339 340 342 343 342 342 341 340 340 339 336 337 338 337
339 339 340 341 342 342 342 343 343 343 343 343 343 344 344 342 342 343 343 343 343 343 343 344 345 344 344 342 342 341 341 342 341 341 341 341 341 340 340 339 340 339 338 339 339 340 341 340 341 341 342 342 342 342 341 340 339 339 339 339 337 337
339 339 340 342 343 342 343 343 344 344 343 343 343 342 342 342 341 341 341 342 342 343 344 344 345 344 344 341 343 341 342 342 342 341 341 341 340 339 339 338 339 339 339 337 338 338 340 340 339 339 340 340 340 341 341 340 339 339 340 338 337 335
339 341 342 342 341 342 342 342 341 340 340 339 339 340 340 340 339 340 340 339 340 342 342 342 343 342 343 342 342 341 341 341 341 341 341 341 340 340 339 338 337 338 338 338 337 338 339 340 339 338 339 340 340 340 340 341 341 340 339 337 337 337
337 339 340 340 341 342 342 341 341 340 340 340 340 339 340 339 339 339 339 338 339 340 340 340 341 341 342 342 343 342 341 341 341 341 339 340 339 339 339 337 335 336 338 338 336 337 338 337 337 338 337 338 340 339 340 341 340 339 338 338 337 337
338 339 339 339 340 340 340 340 339 341 339 338 337 337 337 337 338 338 338 339 338 339 339 340 340 340 341 341 342 342 341 341 342 340 339 337 338 338 337 336 336 335 334 336 337 336 336 335 335 335 334 336 337 337 336 337 338 337 337 338 338 338
339 341 341 340 340 341 341 340 338 336 334 335 335 336 335 336 336 337 337 337 337 338 338 338 339 339 339 340 341 341 340 340 340 339 338 338 339 339 338 337 336 336 334 333 334 335 335 334 331 331 333 333 334 338 337 336 335 336 335 336 338 337
339 340 339 339 339 339 339 337 336 334 334 334 333 333 332 334 335 336 337 336 337 337 337 338 338 338 338 338 338 337 337 337 339 339 338 338 337 337 337 336 335 333 335 334 333 334 335 332 329 326 324 326 329 333 336 337 334 334 334 335 336 337
337 338 338 339 339 337 337 338 337 335 333 330 333 334 333 334 335 334 334 335 335 336 336 336 337 337 336 336 336 335 335 336 336 337 337 337 336 336 337 335 335 332 331 332 332 335 335 333 326 328 328 323 323 323 328 331 334 334 335 336 336 335
335 337 337 337 337 338 337 337 336 335 334 333 331 331 332 332 332 332 331 333 333 334 334 335 335 336 336 336 336 335 336 336 336 337 337 336 335 334 335 334 333 333 332 328 331 331 334 334 331 328 321 322 322 322 319 323 326 331 334 334 334 334
330 332 334 336 336 337 336 335 333 332 331 330 330 330 329 327 328 329 329 329 329 330 329 329 331 332 333 334 335 335 335 335 336 337 337 337 335 334 335 334 333 332 332 330 328 330 332 333 332 334 328 323 321 319 319 322 324 325 332 331 333 332
329 330 331 332 334 335 335 333 331 330 328 328 325 325 324 323 324 324 325 328 328 325 324 325 326 328 329 330 331 332 333 333 334 335 335 336 336 336 335 335 334 332 331 332 328 329 329 332 332 332 332 331 327 320 320 323 322 318 330 332 331 330
328 328 329 330 331 332 332 331 330 329 328 327 324 323 325 326 324 325 325 325 325 325 322 322 323 325 326 326 326 327 327 327 328 329 332 332 332 333 334 334 334 334 332 332 331 326 326 328 332 331 331 331 330 330 329 322 318 321 317 326 329 328
326 326 326 327 328 330 329 328 327 326 325 324 323 322 322 323 324 323 321 321 322 321 320 319 320 321 322 322 322 321 322 321 321 323 324 324 325 326 328 331 334 334 334 332 331 328 327 329 326 326 331 329 329 330 328 328 328 322 318 315 319 327
323 323 324 325 325 325 324 324 324 323 322 322 321 319 319 320 319 319 318 318 318 319 318 317 317 318 319 317 316 316 317 317 317 318 319 318 319 320 322 323 324 326 329 331 331 331 329 328 328 327 328 328 329 329 330 330 330 329 321 317 319 321
320 320 321 322 322 322 322 322 320 320 319 318 318 317 317 316 316 316 315 315 316 315 315 316 317 316 316 314 314 313 313 313 314 314 315 314 313 315 318 319 320 321 323 324 327 328 328 329 330 330 330 328 326 326 327 326 328 328 327 327 318 319
319 320 320 320 320 319 319 319 318 317 317 316 315 315 314 314 314 314 314 314 314 314 314 314 315 315 313 314 314 313 311 311 311 311 310 311 310 311 314 316 318 319 320 320 320 320 322 325 327 328 329 329 327 327 325 322 323 324 323 321 321 321
317 318 318 318 318 317 317 316 317 316 314 314 313 312 311 311 311 311 312 311 312 313 313 313 313 313 311 311 312 311 311 310 309 309 308 309 309 309 310 313 315 316 317 318 316 316 318 320 320 322 326 328 328 330 327 325 324 326 324 322 322 320
315 316 316 316 316 316 315 315 314 314 313 313 312 311 310 309 310 310 310 310 310 310 310 310 310 310 310 309 310 309 308 307 307 308 308 307 308 308 308 311 312 312 312 313 313 313 314 314 315 317 318 321 324 326 327 329 328 327 327 328 324 320
314 315 315 314 314 313 313 313 313 313 312 311 310 310 309 308 308 308 309 308 308 308 308 308 308 309 309 308 307 307 307 307 307 307 307 307 307 307 307 308 309 309 310 310 310 310 311 311 313 314 314 315 316 318 323 327 327 327 325 324 322 320
313 313 313 312 312 311 311 311 312 312 311 311 309 309 308 308 308 307 307 307 307 307 307 307 307 308 307 307 307 306 306 306 305 306 306 306 306 306 306 307 307 306 307 306 306 307 307 308 308 308 309 310 311 314 317 320 323 326 327 325 324 323
312 311 311 311 311 311 310 311 311 310 310 310 309 309 308 308 308 308 307 307 306 307 307 307 307 307 306 306 306 305 305 305 305 305 305 304 304 304 305 305 304 304 304 304 304 305 305 306 306 306 307 308 309 310 313 313 314 316 319 322 323 324
311 311 311 311 311 311 310 310 310 310 310 309 308 308 307 307 307 307 307 306 306 306 307 307 306 307 306 306 305 305 304 304 304 304 304 304 304 304 305 303 303 303 302 303 304 304 304 304 305 306 306 307 307 308 310 311 312 313 314 316 319 322
Wind_Speed
8 9 9 8 8 9 10 12 11 10 10 11 9 9 9 9 8 8 8 8 7 4 4 3 3 4 3 4 4 4 5 5 6 7 8 8 8 9 9 10 10 8 7 7 9 9 7 8 7 7 7 7 7 4 2 2 2 2 1 2 3 2
7 8 8 7 6 7 8 8 8 8 8 8 8 8 6 5 5 5 6 4 3 3 2 3 3 3 3 3 4 4 5 5 5 6 6 7 8 9 10 10 9 7 6 5 3 5 6 7 7 7 6 5 4 2 2 2 2 2 2 2 2 4
7 8 8 8 6 7 7 6 6 6 5 6 7 6 5 4 4 4 4 4 3 2 3 3 3 2 3 3 5 4 5 5 6 6 7 8 8 9 9 9 9 6 5 1 4 4 4 4 5 7 6 5 3 2 2 2 2 1 2 1 2 6
8 8 7 6 6 5 6 6 6 6 5 6 5 5 5 4 3 4 3 3 2 2 2 2 5 5 3 2 3 4 6 4 4 5 7 3 4 6 5 7 7 3 1 1 4 4 4 3 3 3 3 3 3 3 3 3 3 2 2 3 3 6
7 7 7 6 7 6 6 6 6 5 5 5 4 4 4 4 3 3 2 2 2 2 2 3 2 3 2 2 3 3 2 3 3 3 4 2 2 3 3 3 3 2 1 1 2 3 2 3 2 2 2 2 3 3 3 3 3 3 3 3 3 6
7 7 6 6 6 6 6 6 6 6 5 5 4 4 3 3 3 2 2 2 1 1 2 3 3 3 3 3 3 4 3 2 3 3 2 1 2 2 2 2 2 2 2 1 1 1 1 1 2 1 1 2 2 3 4 4 4 4 3 4 4 7
7 7 6 6 6 6 5 5 5 5 5 4 4 4 4 3 2 2 1 1 1 3 3 3 3 4 4 3 4 4 3 3 3 3 2 1 1 1 1 1 1 2 2 2 2 2 2 1 0 0 1 2 3 3 4 4 4 4 4 4 4 9
7 6 6 6 6 5 4 5 4 5 4 4 3 3 3 2 2 1 0 1 2 1 2 2 3 3 3 2 3 3 3 3 3 3 2 2 1 1 1 1 1 1 1 2 2 2 2 2 2 2 1 2 3 3 4 4 4 4 4 4 4 7
7 7 5 5 5 4 4 4 4 4 3 3 2 2 2 2 1 1 0 1 2 1 1 1 2 2 1 2 2 2 2 2 3 3 3 3 3 2 1 1 1 1 1 1 2 2 2 2 2 2 1 2 2 3 3 4 4 5 5 4 5 5
7 6 6 5 5 4 4 4 3 3 2 2 2 2 2 1 1 0 1 1 2 2 1 1 1 1 2 2 2 2 2 3 3 3 4 4 3 3 2 2 2 2 2 2 3 2 2 1 3 1 1 2 1 2 2 3 4 5 5 5 5 4
7 7 5 5 5 4 4 3 3 2 2 2 2 1 1 1 1 1 1 1 1 1 1 1 2 2 2 2 3 3 3 3 3 3 3 4 3 3 3 2 3 3 3 3 3 3 4 4 3 1 1 2 1 1 1 2 3 4 5 5 5 5
7 6 6 5 5 4 4 3 3 2 2 2 2 2 2 2 2 2 1 1 1 1 2 2 3 3 4 4 4 4 4 3 3 3 3 4 4 3 3 4 3 3 3 3 3 3 3 4 4 3 2 2 1 1 1 1 2 4 5 5 5 5
6 6 6 5 4 4 3 3 3 2 2 2 1 2 2 2 2 1 1 2 2 3 3 3 3 4 4 3 4 4 4 4 3 3 3 4 4 3 3 3 3 3 3 3 3 4 3 4 4 3 3 2 2 2 2 3 3 4 5 5 5 6
6 6 6 5 5 4 3 3 3 2 3 2 2 2 3 2 2 2 2 3 3 3 3 2 2 2 2 3 4 4 5 4 4 4 3 2 3 3 3 4 4 3 3 3 3 4 4 5 4 3 3 3 3 3 3 4 4 4 5 6 6 6
6 7 7 7 7 6 4 4 3 3 3 3 3 3 2 2 2 2 2 2 3 3 3 2 1 1 2 2 3 4 4 3 3 3 3 3 4 3 3 3 3 4 3 3 4 4 4 4 4 4 4 4 4 3 4 5 5 6 5 6 6 7
7 8 7 7 6 5 5 4 4 4 4 3 3 3 3 3 3 2 2 2 2 1 1 1 1 0 0 1 2 2 2 3 3 3 3 3 3 4 4 4 3 3 4 4 4 4 4 4 4 4 4 4 4 4 4 5 5 6 5 5 6 6
8 8 8 7 7 6 5 5 5 5 4 4 4 4 3 3 2 2 2 2 2 2 1 1 1 1 2 2 2 2 2 3 3 3 3 3 3 4 4 5 5 4 4 4 5 5 4 4 5 5 4 6 6 5 5 5 6 6 3 5 6 6
7 7 6 6 5 4 4 5 5 4 4 5 6 5 4 4 4 3 3 3 3 2 3 3 2 2 1 1 2 2 2 2 2 2 3 3 3 3 4 4 6 6 5 5 5 5 5 5 5 6 6 6 7 6 6 6 6 5 6 7 7 7
6 6 6 5 5 5 5 5 5 6 6 7 6 6 5 5 5 5 5 5 4 3 3 3 2 2 1 1 1 2 2 2 1 2 3 3 3 3 2 3 4 6 6 5 6 6 6 6 7 7 7 7 7 8 7 7 6 6 7 7 7 7
5 6 6 5 4 5 5 5 6 5 7 7 7 7 7 6 5 6 6 5 5 4 4 3 3 2 2 2 2 2 2 2 2 2 3 3 3 3 3 4 5 5 6 5 5 5 6 6 7 8 8 8 8 8 9 9 9 10 9 9 8 7
6 6 5 5 5 4 4 5 6 7 7 6 6 7 8 7 7 6 7 6 6 4 4 4 4 4 3 2 2 2 2 2 2 2 3 3 3 3 3 4 4 4 5 5 5 2 3 4 7 7 6 7 8 9 9 9 10 9 10 9 8 8
7 8 7 6 5 5 5 5 6 6 7 7 7 7 7 7 7 7 7 7 6 6 6 5 5 5 5 5 4 4 4 4 4 3 3 3 3 3 3 3 3 4 2 4 4 2 3 4 3 4 7 7 8 7 7 7 8 8 8 8 8 9
8 7 7 7 6 6 6 6 6 6 7 8 8 7 8 7 8 8 9 8 8 7 7 7 6 6 5 6 5 5 4 4 4 4 4 3 3 4 4 4 4 4 4 3 4 3 4 2 4 6 6 6 5 8 5 6 5 6 7 7 7 8
8 8 7 8 8 8 9 10 9 8 7 7 7 7 8 8 8 9 10 9 9 8 8 8 8 7 6 7 6 6 5 4 4 3 3 4 4 4 4 3 3 4 4 5 3 1 2 3 3 6 6 4 7 5 7 3 6 7 8 9 8 8
7 8 7 7 7 8 9 9 8 8 7 7 7 6 6 7 7 8 8 8 8 8 8 8 8 9 8 8 8 7 6 5 5 5 4 4 4 4 4 3 3 4 4 5 5 3 2 3 5 3 4 5 4 3 4 8 10 8 4 4 6 7
7 7 7 7 6 4 4 5 3 3 3 4 6 6 7 7 7 7 8 7 8 8 9 9 9 10 10 8 8 8 8 7 7 7 5 4 4 4 4 4 4 4 5 5 5 6 5 3 4 5 6 5 3 6 8 9 8 5 4 8 8 7
8 7 6 7 6 6 7 7 7 7 6 6 7 6 6 6 7 7 6 7 7 8 9 9 10 10 9 8 8 8 9 8 8 7 7 7 7 7 6 5 5 5 4 4 5 5 6 5 5 4 6 7 7 7 7 8 5 8 10 3 4 8
7 8 7 6 8 7 8 8 8 8 7 7 7 7 6 5 5 5 6 7 6 7 9 9 9 9 9 9 9 9 9 9 8 8 7 7 7 7 6 7 7 7 5 4 5 5 5 5 5 6 4 6 7 8 8 9 9 8 10 12 10 7
9 8 8 9 8 9 8 7 6 6 7 7 6 5 5 5 5 6 7 6 6 6 7 9 10 9 9 10 9 9 8 9 9 9 8 8 8 8 9 8 8 8 8 7 6 5 5 5 4 5 5 7 7 6 6 7 8 7 7 10 12 10
9 7 7 9 9 11 10 8 8 8 8 7 5 5 5 6 6 6 7 7 7 7 7 7 9 10 9 9 9 9 8 9 8 7 7 7 8 8 8 9 8 7 7 8 7 8 8 7 7 6 5 4 5 6 8 8 4 6 7 8 11 12
9 8 9 10 11 12 10 9 9 9 9 8 7 6 6 7 6 6 7 7 7 6 7 7 7 9 10 9 9 9 8 8 7 7 7 7 7 7 7 7 7 8 7 7 5 7 7 8 8 8 9 7 7 5 5 8 10 9 8 9 11 12
10 10 9 10 11 10 10 10 10 10 10 9 8 7 8 8 8 8 7 7 6 6 7 8 8 8 9 9 8 8 9 8 8 8 8 7 7 7 7 6 6 7 7 7 8 8 6 7 9 8 9 9 8 8 9 9 8 6 8 10 10 12
10 10 10 10 11 11 10 10 8 8 8 8 8 9 8 10 8 7 7 7 7 7 7 8 8 8 9 10 7 8 8 8 8 8 8 8 7 8 8 7 7 9 9 10 10 10 8 9 9 8 8 8 9 10 10 8 8 6 7 8 9 11
11 10 10 11 11 11 11 9 9 9 8 8 9 9 8 8 9 8 8 8 8 7 7 8 8 9 8 8 8 8 8 8 8 8 8 8 8 8 9 7 8 9 10 9 9 10 9 10 9 10 9 9 8 8 9 9 8 8 10 10 9 10
11 10 10 10 10 11 9 10 9 9 9 8 8 8 8 8 7 8 9 9 8 8 8 8 9 8 8 8 8 8 8 8 8 8 8 9 8 8 9 7 7 9 8 9 10 10 9 10 10 12 12 10 10 9 9 10 10 11 10 10 11 11
11 9 9 10 10 10 10 9 11 11 11 10 8 8 8 8 7 8 10 9 9 9 8 9 9 8 8 8 9 8 9 9 9 8 9 9 10 8 9 9 9 9 10 9 10 12 10 11 11 13 11 11 9 9 9 10 10 10 11 11 11 11
10 9 10 10 10 10 10 11 11 11 10 10 10 10 9 10 9 9 10 10 9 9 9 9 8 8 8 9 9 9 9 9 10 10 9 9 10 10 10 9 9 10 10 11 10 10 10 10 11 11 11 12 10 10 9 10 10 10 10 10 10 11
Wind_Direction
132 130 126 123 126 127 127 129 121 121 123 119 116 113 110 113 119 112 101 93 97 80 75 71 75 51 80 77 72 78 56 53 52 61 65 66 64 61 62 71 80 75 71 70 84 98 112 131 136 140 145 157 156 185 164 169 163 148 159 144 171 126
133 128 127 124 125 126 125 125 129 134 133 126 128 126 127 129 127 112 87 85 73 84 85 90 77 78 58 67 99 65 64 52 47 54 64 67 67 63 62 68 82 81 74 77 95 116 127 131 137 147 149 141 194 181 177 184 196 168 166 163 187 122
132 131 129 127 125 122 124 132 130 129 127 135 126 130 130 130 110 83 78 77 84 92 87 80 104 92 73 72 54 64 60 48 39 43 50 57 56 60 58 58 78 86 85 125 121 105 121 137 144 149 155 186 206 199 182 204 207 212 196 151 211 141
134 134 132 127 120 117 126 131 128 120 119 113 114 114 109 99 93 86 96 99 98 93 93 75 72 92 97 81 95 91 70 54 48 50 30 51 65 57 60 74 81 93 137 122 112 116 111 123 138 168 184 194 202 192 201 200 220 216 229 178 213 161
134 134 132 128 126 125 126 122 121 113 109 115 109 101 92 103 106 116 120 112 101 82 62 45 58 55 36 34 36 49 69 46 24 21 11 37 30 43 47 63 105 124 80 110 114 105 98 113 136 157 172 198 206 208 215 211 223 226 212 199 205 184
134 136 133 130 130 130 129 127 125 122 119 116 118 126 132 118 118 134 127 110 93 77 30 32 25 36 43 25 23 29 30 42 38 21 352 11 48 31 51 63 82 110 129 140 120 106 98 97 141 156 173 197 213 215 225 224 219 217 216 215 197 203
132 132 133 130 127 120 122 123 124 129 124 122 137 135 126 128 136 141 114 73 29 39 21 5 8 20 32 19 27 16 22 21 23 24 20 347 42 72 38 73 98 122 137 147 151 150 174 163 257 198 192 211 229 227 227 230 224 222 219 215 208 200
133 134 133 130 116 116 126 127 130 124 125 139 141 123 122 134 142 131 95 31 41 25 13 7 10 12 29 16 28 25 5 3 6 13 15 356 2 29 49 46 53 121 166 157 159 167 165 168 190 228 243 234 235 249 243 241 233 231 229 221 227 199
133 132 130 128 120 117 128 124 121 118 128 129 123 120 124 135 140 126 92 330 341 348 14 10 10 27 22 37 42 23 359 1 340 354 339 12 13 4 3 0 6 331 195 235 208 187 173 167 185 195 248 272 276 268 260 247 237 231 230 228 226 205
131 133 136 135 132 129 130 130 127 121 115 115 98 116 141 122 89 7 49 352 343 349 358 0 20 40 350 26 29 24 353 346 340 335 337 342 359 342 343 332 323 326 316 290 274 259 288 195 172 178 250 299 268 270 245 243 234 231 231 226 226 218
132 134 135 134 133 129 130 121 119 121 115 91 100 119 80 53 57 36 28 23 2 338 15 35 16 18 1 0 0 346 348 342 331 346 334 331 328 320 317 308 321 321 317 315 305 300 308 300 301 279 45 329 338 304 263 238 240 237 236 233 234 231
125 132 131 128 125 126 128 121 121 121 101 81 76 46 45 39 32 49 60 103 119 66 43 44 30 24 22 6 346 336 334 335 351 347 339 336 334 326 310 313 306 307 313 308 305 301 304 298 304 312 320 310 330 301 280 242 235 228 231 229 232 231
119 119 119 116 111 112 112 108 113 102 93 76 66 55 42 37 36 53 83 73 64 56 50 40 34 28 8 353 339 335 337 341 347 354 347 340 334 324 308 297 287 287 288 294 297 292 293 286 288 296 298 274 265 259 256 244 223 218 217 226 232 234
113 112 112 109 108 100 102 90 78 70 74 86 70 59 50 47 25 42 54 52 60 65 65 62 43 23 317 335 342 336 336 340 349 347 340 328 331 329 328 321 310 297 288 290 289 287 283 276 271 272 270 265 262 268 260 242 233 221 211 214 218 224
118 112 103 103 101 100 100 104 105 84 86 79 74 67 60 43 46 41 42 58 55 61 63 83 121 306 349 350 339 330 329 336 341 335 330 360 333 330 334 322 321 312 321 295 290 284 279 277 276 267 264 264 269 254 236 244 233 231 220 222 221 220
107 109 112 109 102 101 103 106 111 115 103 108 102 77 61 50 36 29 11 27 50 79 22 30 67 141 289 341 322 321 330 338 341 339 343 342 335 341 345 323 317 309 314 307 301 288 283 287 286 282 277 275 274 265 265 257 250 245 234 225 227 222
106 105 103 100 97 93 97 100 86 72 69 71 62 59 55 57 57 25 0 358 12 10 11 42 1 13 339 320 306 305 333 342 342 339 338 342 342 352 340 338 331 333 313 302 294 293 289 288 294 289 280 281 278 270 261 258 256 257 243 234 238 229
101 101 102 101 103 106 102 97 87 81 83 78 68 61 59 59 57 50 47 38 27 32 23 17 4 5 352 322 299 319 326 312 314 317 333 344 343 338 350 342 337 332 326 314 301 311 312 309 302 297 287 277 279 278 271 261 257 252 250 245 233 232
102 106 106 112 114 108 105 93 93 100 83 71 66 60 57 58 52 54 57 59 57 52 40 29 23 18 353 332 255 251 316 320 273 289 327 326 305 332 344 359 336 326 321 318 317 312 315 316 308 304 301 296 287 278 276 271 264 258 254 249 247 242
107 112 112 107 108 103 96 93 97 90 72 61 63 63 58 59 57 59 57 59 58 57 50 47 41 37 19 351 327 346 334 322 306 317 316 324 324 315 339 331 324 319 308 310 301 320 326 312 301 298 296 294 290 285 277 272 267 266 267 265 259 247
97 106 104 98 88 84 91 94 75 71 70 63 64 64 59 59 60 58 57 56 54 52 53 53 48 46 40 24 13 11 359 354 335 308 302 304 325 334 312 294 300 287 297 305 316 340 295 297 301 304 311 305 302 290 276 269 267 265 263 267 264 255
87 84 78 77 83 77 65 73 87 82 80 67 65 64 65 59 61 59 56 55 55 55 54 50 44 42 35 24 20 15 14 3 343 338 334 334 336 330 309 299 303 304 276 304 313 314 318 294 308 322 315 316 302 292 281 267 265 271 269 260 261 260
81 84 80 80 82 80 83 94 99 97 91 85 69 73 75 68 64 62 56 53 50 49 51 49 45 42 36 31 30 27 19 10 1 352 338 356 348 331 340 340 324 314 310 304 290 280 274 237 307 311 292 273 300 319 312 266 248 260 260 265 263 261
73 80 84 87 92 94 97 97 90 94 94 85 89 79 69 66 65 63 58 53 52 46 43 44 39 37 39 37 33 31 26 20 18 4 343 339 344 336 339 332 325 317 307 295 298 263 206 251 278 319 317 326 305 304 307 350 337 314 295 279 263 264
62 72 81 90 105 114 114 109 108 104 101 92 74 74 77 65 61 63 60 49 40 34 33 32 28 28 29 29 28 27 25 20 15 15 16 3 359 6 351 333 314 303 297 298 299 308 254 241 268 270 305 308 302 265 310 317 325 302 283 293 280 276
67 60 61 57 65 79 91 105 119 119 98 87 70 57 58 65 64 61 64 51 41 36 34 33 34 32 30 25 23 18 21 20 16 20 27 16 7 358 352 340 344 326 302 292 297 296 294 244 248 255 233 255 269 296 312 316 312 302 285 287 292 299
65 64 60 60 63 78 72 69 70 69 74 80 92 80 73 69 73 68 60 49 42 35 32 33 34 35 30 29 28 24 21 17 12 8 7 12 10 3 354 342 333 324 309 297 299 307 308 315 299 247 242 245 256 256 258 289 307 308 306 311 288 300
68 65 56 59 62 67 83 83 85 83 80 78 82 88 78 71 65 65 59 45 42 36 34 33 35 30 28 28 26 24 22 19 18 13 9 10 1 356 356 352 343 331 319 314 306 299 316 324 328 317 281 274 269 261 254 256 264 281 289 302 302 289
70 67 62 63 68 69 73 75 76 82 84 81 80 71 68 58 57 55 59 49 41 38 38 39 38 33 29 29 27 24 23 23 21 18 12 8 1 358 360 358 0 348 346 333 321 307 290 295 297 298 316 309 314 307 282 263 277 272 282 298 295 301
73 70 68 65 67 69 69 71 72 72 78 77 78 79 66 64 59 55 57 49 44 42 41 41 42 32 29 30 30 27 25 24 20 12 9 6 359 357 357 356 355 346 351 1 358 351 338 318 303 301 296 294 304 309 297 303 281 286 273 260 283 299
69 69 65 65 65 67 67 67 71 68 70 73 71 67 68 60 54 52 53 50 48 47 44 45 42 38 27 23 28 27 24 23 19 13 8 4 2 355 349 345 344 350 360 4 357 347 345 344 335 321 304 299 298 279 286 301 303 304 306 304 303 297
68 68 68 68 68 67 70 70 71 71 70 67 66 67 65 61 52 52 49 51 51 53 51 48 45 41 30 21 23 23 19 18 18 11 11 1 358 350 341 336 347 352 352 357 358 357 347 346 346 335 332 326 312 297 293 292 291 287 292 296 294 293
75 70 70 70 71 69 69 69 71 75 74 70 66 66 67 63 56 55 53 51 50 51 49 49 45 44 39 29 26 26 23 20 14 11 3 359 353 352 349 345 351 354 354 359 358 356 352 349 342 340 337 329 328 322 311 308 300 285 281 283 286 293
77 69 70 70 70 70 67 68 70 71 70 69 69 67 67 66 65 65 62 60 56 53 53 50 46 44 36 32 32 31 26 24 18 10 5 358 357 357 357 356 2 3 358 359 355 355 351 348 344 347 341 336 337 324 316 316 312 301 298 296 292 288
80 69 69 69 69 70 68 65 65 66 67 69 70 71 68 65 62 64 65 64 60 58 58 55 50 46 36 35 32 30 27 24 17 11 6 5 1 2 3 6 11 11 8 4 2 358 356 353 350 348 344 344 333 327 333 330 326 319 318 307 298 298
79 76 73 72 72 73 73 72 69 69 68 67 69 69 67 64 62 60 62 61 60 58 59 62 58 49 38 33 31 28 27 24 16 14 14 17 15 13 16 19 17 15 13 9 4 6 3 356 353 350 348 345 339 336 333 336 333 330 329 325 317 312
79 78 76 78 80 80 80 77 72 72 71 71 67 65 65 63 60 59 59 58 57 56 59 61 58 49 42 37 34 30 27 20 18 17 20 20 20 22 25 24 20 16 15 8 8 9 6 2 357 354 351 349 346 338 338 337 333 330 325 323 320 314